Time,TemperatureF,DewpointF,PressureIn,WindDirection,WindDirectionDegrees,WindSpeedMPH,WindSpeedGustMPH,Humidity,HourlyPrecipIn,Conditions,Clouds,dailyrainin,SoftwareType,DateUTC
2013-02-21 00:00:00,25.7,11.8,30.06,NW,308,11.0,15.0,55,0.00,,,0.00,meteohub,2013-02-21 05:00:00,
2013-02-21 00:05:00,25.7,11.8,30.07,WNW,292,9.0,20.0,55,0.00,,,0.00,meteohub,2013-02-21 05:05:00,
2013-02-21 00:10:00,25.7,11.8,30.07,WNW,300,8.0,20.0,55,0.00,,,0.00,meteohub,2013-02-21 05:10:00,
2013-02-21 00:16:00,25.7,12.2,30.06,WNW,302,11.0,20.0,56,0.00,,,0.00,meteohub,2013-02-21 05:16:00,
2013-02-21 00:21:00,25.5,12.0,30.06,NW,322,8.0,19.0,56,0.00,,,0.00,meteohub,2013-02-21 05:21:00,
2013-02-21 00:26:00,25.5,12.0,30.06,WNW,296,14.0,21.0,56,0.00,,,0.00,meteohub,2013-02-21 05:26:00,
2013-02-21 00:31:00,25.5,12.0,30.06,WNW,291,6.0,21.0,56,0.00,,,0.00,meteohub,2013-02-21 05:31:00,
2013-02-21 00:36:00,25.3,11.8,30.06,WNW,300,8.0,21.0,56,0.00,,,0.00,meteohub,2013-02-21 05:36:00,
2013-02-21 00:41:00,25.3,12.2,30.06,WNW,293,5.0,20.0,57,0.00,,,0.00,meteohub,2013-02-21 05:41:00,
2013-02-21 00:46:00,25.3,12.2,30.06,WNW,290,7.0,14.0,57,0.00,,,0.00,meteohub,2013-02-21 05:46:00,
2013-02-21 00:51:00,25.3,12.2,30.07,NW,312,10.0,14.0,57,0.00,,,0.00,meteohub,2013-02-21 05:51:00,
2013-02-21 00:56:00,25.3,12.2,30.06,WNW,283,11.0,17.0,57,0.00,,,0.00,meteohub,2013-02-21 05:56:00,
2013-02-21 01:01:00,25.3,12.2,30.06,WNW,297,8.0,17.0,57,0.00,,,0.00,meteohub,2013-02-21 06:01:00,
2013-02-21 01:06:00,25.3,12.2,30.06,WNW,289,5.0,17.0,57,0.00,,,0.00,meteohub,2013-02-21 06:06:00,
2013-02-21 01:11:00,25.2,12.4,30.06,West,273,10.0,16.0,58,0.00,,,0.00,meteohub,2013-02-21 06:11:00,
2013-02-21 01:16:00,25.2,12.4,30.06,WNW,289,7.0,15.0,58,0.00,,,0.00,meteohub,2013-02-21 06:16:00,
2013-02-21 01:21:00,25.2,12.4,30.06,WNW,287,8.0,13.0,58,0.00,,,0.00,meteohub,2013-02-21 06:21:00,
2013-02-21 01:26:00,25.2,12.9,30.06,WNW,297,7.0,13.0,59,0.00,,,0.00,meteohub,2013-02-21 06:26:00,
2013-02-21 01:31:00,25.2,12.4,30.07,West,280,6.0,16.0,58,0.00,,,0.00,meteohub,2013-02-21 06:31:00,
2013-02-21 01:36:00,25.2,12.9,30.07,West,276,7.0,16.0,59,0.00,,,0.00,meteohub,2013-02-21 06:36:00,
2013-02-21 01:41:00,25.0,12.7,30.06,WNW,289,4.0,16.0,59,0.00,,,0.00,meteohub,2013-02-21 06:41:00,
2013-02-21 01:46:00,25.0,12.7,30.06,WNW,283,6.0,13.0,59,0.00,,,0.00,meteohub,2013-02-21 06:46:00,
2013-02-21 01:51:00,25.0,12.7,30.06,WNW,295,5.0,13.0,59,0.00,,,0.00,meteohub,2013-02-21 06:51:00,
2013-02-21 01:56:00,25.0,12.7,30.05,WNW,300,4.0,12.0,59,0.00,,,0.00,meteohub,2013-02-21 06:56:00,
2013-02-21 02:01:00,24.8,12.9,30.06,West,276,6.0,12.0,60,0.00,,,0.00,meteohub,2013-02-21 07:01:00,
2013-02-21 02:06:00,24.8,12.9,30.06,WNW,295,2.0,11.0,60,0.00,,,0.00,meteohub,2013-02-21 07:06:00,
2013-02-21 02:11:00,24.8,12.9,30.06,WNW,291,3.0,11.0,60,0.00,,,0.00,meteohub,2013-02-21 07:11:00,
2013-02-21 02:16:00,24.6,13.1,30.06,WNW,297,4.0,11.0,61,0.00,,,0.00,meteohub,2013-02-21 07:16:00,
2013-02-21 02:21:00,24.6,13.1,30.06,WNW,291,4.0,8.0,61,0.00,,,0.00,meteohub,2013-02-21 07:21:00,
2013-02-21 02:26:00,24.6,13.1,30.06,NW,307,2.0,10.0,61,0.00,,,0.00,meteohub,2013-02-21 07:26:00,
2013-02-21 02:31:00,24.8,13.3,30.06,NW,304,4.0,10.0,61,0.00,,,0.00,meteohub,2013-02-21 07:31:00,
2013-02-21 02:36:00,24.8,13.3,30.05,WNW,293,5.0,10.0,61,0.00,,,0.00,meteohub,2013-02-21 07:36:00,
2013-02-21 02:41:00,24.8,13.6,30.05,NW,304,3.0,9.0,62,0.00,,,0.00,meteohub,2013-02-21 07:41:00,
2013-02-21 02:46:00,24.6,13.5,30.05,West,280,4.0,9.0,62,0.00,,,0.00,meteohub,2013-02-21 07:46:00,
2013-02-21 02:51:00,24.6,13.8,30.05,WNW,287,3.0,8.0,63,0.00,,,0.00,meteohub,2013-02-21 07:51:00,
2013-02-21 02:56:00,24.6,13.8,30.05,WNW,300,7.0,8.0,63,0.00,,,0.00,meteohub,2013-02-21 07:56:00,
2013-02-21 03:01:00,24.8,14.0,30.05,NW,305,5.0,7.0,63,0.00,,,0.00,meteohub,2013-02-21 08:01:00,
2013-02-21 03:06:00,25.0,14.2,30.05,West,271,1.0,7.0,63,0.00,,,0.00,meteohub,2013-02-21 08:06:00,
2013-02-21 03:11:00,25.0,14.2,30.05,WNW,296,5.0,7.0,63,0.00,,,0.00,meteohub,2013-02-21 08:11:00,
2013-02-21 03:16:00,25.0,14.2,30.05,WNW,284,4.0,8.0,63,0.00,,,0.00,meteohub,2013-02-21 08:16:00,
2013-02-21 03:21:00,25.0,14.2,30.05,WNW,296,3.0,8.0,63,0.00,,,0.00,meteohub,2013-02-21 08:21:00,
2013-02-21 03:26:00,25.0,14.2,30.05,WNW,300,7.0,9.0,63,0.00,,,0.00,meteohub,2013-02-21 08:26:00,
2013-02-21 03:31:00,25.2,14.4,30.05,WNW,293,4.0,9.0,63,0.00,,,0.00,meteohub,2013-02-21 08:31:00,
2013-02-21 03:36:00,25.3,14.2,30.05,NW,308,6.0,13.0,62,0.00,,,0.00,meteohub,2013-02-21 08:36:00,
2013-02-21 03:41:00,25.5,14.4,30.05,NW,317,5.0,13.0,62,0.00,,,0.00,meteohub,2013-02-21 08:41:00,
2013-02-21 03:46:00,25.5,14.4,30.05,WNW,283,5.0,13.0,62,0.00,,,0.00,meteohub,2013-02-21 08:46:00,
2013-02-21 03:51:00,25.7,14.5,30.05,WNW,283,7.0,11.0,62,0.00,,,0.00,meteohub,2013-02-21 08:51:00,
2013-02-21 03:56:00,25.7,14.5,30.05,WNW,300,5.0,11.0,62,0.00,,,0.00,meteohub,2013-02-21 08:56:00,
2013-02-21 04:01:00,25.7,14.5,30.05,WNW,297,6.0,11.0,62,0.00,,,0.00,meteohub,2013-02-21 09:01:00,
2013-02-21 04:06:00,25.7,14.5,30.05,WNW,293,6.0,11.0,62,0.00,,,0.00,meteohub,2013-02-21 09:06:00,
2013-02-21 04:11:00,25.7,14.5,30.05,NW,304,4.0,11.0,62,0.00,,,0.00,meteohub,2013-02-21 09:11:00,
2013-02-21 04:16:00,25.7,14.5,30.05,WNW,289,4.0,11.0,62,0.00,,,0.00,meteohub,2013-02-21 09:16:00,
2013-02-21 04:21:00,25.7,14.5,30.05,West,274,6.0,13.0,62,0.00,,,0.00,meteohub,2013-02-21 09:21:00,
2013-02-21 04:26:00,25.7,14.5,30.05,WNW,287,12.0,15.0,62,0.00,,,0.00,meteohub,2013-02-21 09:26:00,
2013-02-21 04:31:00,25.7,14.5,30.05,WNW,295,7.0,15.0,62,0.00,,,0.00,meteohub,2013-02-21 09:31:00,
2013-02-21 04:36:00,25.7,14.5,30.05,WNW,298,6.0,15.0,62,0.00,,,0.00,meteohub,2013-02-21 09:36:00,
2013-02-21 04:41:00,25.7,14.5,30.05,WNW,300,7.0,13.0,62,0.00,,,0.00,meteohub,2013-02-21 09:41:00,
2013-02-21 04:46:00,25.5,14.7,30.06,NW,311,4.0,13.0,63,0.00,,,0.00,meteohub,2013-02-21 09:46:00,
2013-02-21 04:51:00,25.7,14.9,30.06,West,267,16.0,16.0,63,0.00,,,0.00,meteohub,2013-02-21 09:51:00,
2013-02-21 04:56:00,25.7,14.9,30.06,West,280,6.0,16.0,63,0.00,,,0.00,meteohub,2013-02-21 09:56:00,
2013-02-21 05:01:00,25.7,14.9,30.06,WNW,300,7.0,16.0,63,0.00,,,0.00,meteohub,2013-02-21 10:01:00,
2013-02-21 05:06:00,25.7,14.9,30.06,WNW,291,4.0,16.0,63,0.00,,,0.00,meteohub,2013-02-21 10:06:00,
2013-02-21 05:11:00,25.9,15.1,30.06,NW,304,6.0,15.0,63,0.00,,,0.00,meteohub,2013-02-21 10:11:00,
2013-02-21 05:16:00,25.9,15.1,30.06,NW,309,6.0,15.0,63,0.00,,,0.00,meteohub,2013-02-21 10:16:00,
2013-02-21 05:21:00,25.9,15.1,30.06,WNW,289,5.0,13.0,63,0.00,,,0.00,meteohub,2013-02-21 10:21:00,
2013-02-21 05:26:00,25.9,15.1,30.06,NW,323,7.0,13.0,63,0.00,,,0.00,meteohub,2013-02-21 10:26:00,
2013-02-21 05:31:00,25.9,15.1,30.06,WNW,297,7.0,14.0,63,0.00,,,0.00,meteohub,2013-02-21 10:31:00,
2013-02-21 05:36:00,26.1,14.9,30.06,WNW,289,4.0,15.0,62,0.00,,,0.00,meteohub,2013-02-21 10:36:00,
2013-02-21 05:41:00,26.1,14.9,30.06,WNW,301,6.0,15.0,62,0.00,,,0.00,meteohub,2013-02-21 10:41:00,
2013-02-21 05:46:00,26.1,14.9,30.06,NW,325,8.0,15.0,62,0.00,,,0.00,meteohub,2013-02-21 10:46:00,
2013-02-21 05:51:00,26.1,14.9,30.07,NW,316,5.0,15.0,62,0.00,,,0.00,meteohub,2013-02-21 10:51:00,
2013-02-21 05:56:00,26.1,14.9,30.06,WNW,287,9.0,14.0,62,0.00,,,0.00,meteohub,2013-02-21 10:56:00,
2013-02-21 06:01:00,26.1,14.9,30.07,NW,304,17.0,17.0,62,0.00,,,0.00,meteohub,2013-02-21 11:01:00,
2013-02-21 06:06:00,26.1,14.5,30.07,NW,326,10.0,18.0,61,0.00,,,0.00,meteohub,2013-02-21 11:06:00,
2013-02-21 06:11:00,26.2,14.5,30.07,WNW,297,11.0,18.0,61,0.00,,,0.00,meteohub,2013-02-21 11:11:00,
2013-02-21 06:16:00,26.2,14.5,30.07,WNW,284,11.0,18.0,61,0.00,,,0.00,meteohub,2013-02-21 11:16:00,
2013-02-21 06:21:00,26.2,14.5,30.07,NW,326,5.0,17.0,61,0.00,,,0.00,meteohub,2013-02-21 11:21:00,
2013-02-21 06:26:00,26.2,14.5,30.07,NW,304,8.0,17.0,61,0.00,,,0.00,meteohub,2013-02-21 11:26:00,
2013-02-21 06:31:00,26.2,14.5,30.07,WNW,297,9.0,15.0,61,0.00,,,0.00,meteohub,2013-02-21 11:31:00,
2013-02-21 06:37:00,26.1,14.5,30.07,WNW,301,13.0,15.0,61,0.00,,,0.00,meteohub,2013-02-21 11:37:00,
2013-02-21 06:42:00,26.1,14.0,30.08,NW,317,4.0,16.0,60,0.00,,,0.00,meteohub,2013-02-21 11:42:00,
2013-02-21 06:47:00,26.2,14.2,30.07,NW,316,9.0,17.0,60,0.00,,,0.00,meteohub,2013-02-21 11:47:00,
2013-02-21 06:52:00,26.2,14.2,30.08,WNW,302,11.0,17.0,60,0.00,,,0.00,meteohub,2013-02-21 11:52:00,
2013-02-21 06:57:00,26.2,14.2,30.08,NW,321,9.0,17.0,60,0.00,,,0.00,meteohub,2013-02-21 11:57:00,
2013-02-21 07:02:00,26.2,14.5,30.08,WNW,298,8.0,17.0,61,0.00,,,0.00,meteohub,2013-02-21 12:02:00,
2013-02-21 07:07:00,26.1,14.5,30.09,NNW,328,7.0,17.0,61,0.00,,,0.00,meteohub,2013-02-21 12:07:00,
2013-02-21 07:12:00,26.1,14.0,30.09,NW,304,11.0,15.0,60,0.00,,,0.00,meteohub,2013-02-21 12:12:00,
2013-02-21 07:17:00,26.1,14.0,30.09,NW,319,6.0,15.0,60,0.00,,,0.00,meteohub,2013-02-21 12:17:00,
2013-02-21 07:22:00,26.2,14.2,30.09,WNW,297,8.0,15.0,60,0.00,,,0.00,meteohub,2013-02-21 12:22:00,
2013-02-21 07:27:00,26.2,13.5,30.09,WNW,296,8.0,14.0,58,0.00,,,0.00,meteohub,2013-02-21 12:27:00,
2013-02-21 07:32:00,26.4,13.6,30.09,NW,319,7.0,14.0,58,0.00,,,0.00,meteohub,2013-02-21 12:32:00,
2013-02-21 07:37:00,26.4,13.3,30.09,NNW,336,7.0,14.0,57,0.00,,,0.00,meteohub,2013-02-21 12:37:00,
2013-02-21 07:42:00,26.4,13.3,30.09,NW,315,6.0,12.0,57,0.00,,,0.00,meteohub,2013-02-21 12:42:00,
2013-02-21 07:47:00,26.8,13.6,30.09,NW,305,4.0,12.0,57,0.00,,,0.00,meteohub,2013-02-21 12:47:00,
2013-02-21 07:52:00,27.0,13.8,30.09,North,5,1.0,12.0,57,0.00,,,0.00,meteohub,2013-02-21 12:52:00,
2013-02-21 07:57:00,27.1,13.5,30.09,West,269,6.0,12.0,56,0.00,,,0.00,meteohub,2013-02-21 12:57:00,
2013-02-21 08:02:00,27.1,13.1,30.09,NW,308,8.0,12.0,55,0.00,,,0.00,meteohub,2013-02-21 13:02:00,
2013-02-21 08:07:00,27.1,13.1,30.09,NW,312,7.0,16.0,55,0.00,,,0.00,meteohub,2013-02-21 13:07:00,
2013-02-21 08:12:00,27.1,13.5,30.09,West,278,4.0,16.0,56,0.00,,,0.00,meteohub,2013-02-21 13:12:00,
2013-02-21 08:17:00,27.3,13.3,30.09,WNW,284,7.0,16.0,55,0.00,,,0.00,meteohub,2013-02-21 13:17:00,
2013-02-21 08:21:00,27.3,13.3,30.09,WNW,293,4.0,19.0,55,0.00,,,0.00,meteohub,2013-02-21 13:21:00,
2013-02-21 08:26:00,27.7,13.6,30.09,West,277,6.0,19.0,55,0.00,,,0.00,meteohub,2013-02-21 13:26:00,
2013-02-21 08:31:00,27.7,13.6,30.09,WNW,300,9.0,19.0,55,0.00,,,0.00,meteohub,2013-02-21 13:31:00,
2013-02-21 08:36:00,27.9,13.8,30.09,West,263,5.0,14.0,55,0.00,,,0.00,meteohub,2013-02-21 13:36:00,
2013-02-21 08:41:00,27.9,13.8,30.09,WNW,294,13.0,16.0,55,0.00,,,0.00,meteohub,2013-02-21 13:41:00,
2013-02-21 08:47:00,27.9,13.8,30.09,SW,219,13.0,16.0,55,0.00,,,0.00,meteohub,2013-02-21 13:47:00,
2013-02-21 08:52:00,27.9,13.8,30.09,WNW,290,9.0,24.0,55,0.00,,,0.00,meteohub,2013-02-21 13:52:00,
2013-02-21 08:57:00,27.9,13.5,30.09,WNW,301,12.0,24.0,54,0.00,,,0.00,meteohub,2013-02-21 13:57:00,
2013-02-21 09:02:00,27.9,13.8,30.09,NW,316,6.0,24.0,55,0.00,,,0.00,meteohub,2013-02-21 14:02:00,
2013-02-21 09:07:00,27.9,13.8,30.09,NW,319,4.0,17.0,55,0.00,,,0.00,meteohub,2013-02-21 14:07:00,
2013-02-21 09:12:00,28.0,14.4,30.09,WNW,288,14.0,20.0,56,0.00,,,0.00,meteohub,2013-02-21 14:12:00,
2013-02-21 09:17:00,28.0,14.0,30.09,NW,304,8.0,21.0,55,0.00,,,0.00,meteohub,2013-02-21 14:17:00,
2013-02-21 09:22:00,28.4,14.4,30.09,WNW,297,7.0,21.0,55,0.00,,,0.00,meteohub,2013-02-21 14:22:00,
2013-02-21 09:27:00,28.6,14.5,30.09,WNW,300,11.0,21.0,55,0.00,,,0.00,meteohub,2013-02-21 14:27:00,
2013-02-21 09:32:00,28.9,14.4,30.09,NW,315,10.0,20.0,54,0.00,,,0.00,meteohub,2013-02-21 14:32:00,
2013-02-21 09:37:00,29.1,14.5,30.09,WNW,295,12.0,23.0,54,0.00,,,0.00,meteohub,2013-02-21 14:37:00,
2013-02-21 09:42:00,28.8,14.2,30.09,NNW,346,8.0,23.0,54,0.00,,,0.00,meteohub,2013-02-21 14:42:00,
2013-02-21 09:47:00,28.8,14.2,30.09,WNW,302,5.0,23.0,54,0.00,,,0.00,meteohub,2013-02-21 14:47:00,
2013-02-21 09:52:00,28.8,14.2,30.09,West,281,11.0,24.0,54,0.00,,,0.00,meteohub,2013-02-21 14:52:00,
2013-02-21 09:57:00,28.9,14.7,30.09,WNW,294,6.0,24.0,55,0.00,,,0.00,meteohub,2013-02-21 14:57:00,
2013-02-21 10:02:00,29.5,14.9,30.10,WNW,297,14.0,24.0,54,0.00,,,0.00,meteohub,2013-02-21 15:02:00,
2013-02-21 10:07:00,29.7,14.5,30.10,WNW,298,9.0,21.0,53,0.00,,,0.00,meteohub,2013-02-21 15:07:00,
2013-02-21 10:12:00,29.7,15.1,30.10,NW,308,10.0,21.0,54,0.00,,,0.00,meteohub,2013-02-21 15:12:00,
2013-02-21 10:17:00,29.8,15.3,30.09,WNW,284,23.0,23.0,54,0.00,,,0.00,meteohub,2013-02-21 15:17:00,
2013-02-21 10:22:00,30.0,15.4,30.10,WNW,295,15.0,24.0,54,0.00,,,0.00,meteohub,2013-02-21 15:22:00,
2013-02-21 10:27:00,30.2,15.1,30.09,NW,313,11.0,24.0,53,0.00,,,0.00,meteohub,2013-02-21 15:27:00,
2013-02-21 10:32:00,30.0,15.4,30.10,NW,304,17.0,24.0,54,0.00,,,0.00,meteohub,2013-02-21 15:32:00,
2013-02-21 10:37:00,30.4,15.8,30.10,NW,310,15.0,22.0,54,0.00,,,0.00,meteohub,2013-02-21 15:37:00,
2013-02-21 10:42:00,30.6,16.0,30.10,NW,304,13.0,20.0,54,0.00,,,0.00,meteohub,2013-02-21 15:42:00,
2013-02-21 10:47:00,30.6,15.4,30.10,WNW,295,6.0,20.0,53,0.00,,,0.00,meteohub,2013-02-21 15:47:00,
2013-02-21 10:52:00,30.4,15.8,30.10,WNW,296,9.0,23.0,54,0.00,,,0.00,meteohub,2013-02-21 15:52:00,
2013-02-21 10:57:00,30.6,15.4,30.10,WNW,295,19.0,23.0,53,0.00,,,0.00,meteohub,2013-02-21 15:57:00,
2013-02-21 11:02:00,30.6,16.0,30.10,WNW,301,13.0,24.0,54,0.00,,,0.00,meteohub,2013-02-21 16:02:00,
2013-02-21 11:07:00,30.6,15.1,30.10,WNW,295,12.0,25.0,52,0.00,,,0.00,meteohub,2013-02-21 16:07:00,
2013-02-21 11:12:00,30.9,15.8,30.11,WNW,284,8.0,27.0,53,0.00,,,0.00,meteohub,2013-02-21 16:12:00,
2013-02-21 11:17:00,31.3,15.6,30.11,WNW,302,13.0,27.0,52,0.00,,,0.00,meteohub,2013-02-21 16:17:00,
2013-02-21 11:22:00,31.3,15.3,30.10,West,277,14.0,27.0,51,0.00,,,0.00,meteohub,2013-02-21 16:22:00,
2013-02-21 11:27:00,31.8,16.2,30.11,WNW,300,5.0,26.0,52,0.00,,,0.00,meteohub,2013-02-21 16:27:00,
2013-02-21 11:32:00,31.6,16.0,30.10,WNW,283,23.0,23.0,52,0.00,,,0.00,meteohub,2013-02-21 16:32:00,
2013-02-21 11:37:00,31.6,16.0,30.11,NE,34,9.0,23.0,52,0.00,,,0.00,meteohub,2013-02-21 16:37:00,
2013-02-21 11:42:00,31.8,15.8,30.10,NW,313,9.0,23.0,51,0.00,,,0.00,meteohub,2013-02-21 16:42:00,
2013-02-21 11:47:00,31.6,15.1,30.09,West,276,16.0,23.0,50,0.00,,,0.00,meteohub,2013-02-21 16:47:00,
2013-02-21 11:52:00,31.6,15.6,30.09,WNW,283,16.0,28.0,51,0.00,,,0.00,meteohub,2013-02-21 16:52:00,
2013-02-21 11:57:00,32.4,15.8,30.09,NW,315,8.0,28.0,50,0.00,,,0.00,meteohub,2013-02-21 16:57:00,
2013-02-21 12:02:00,32.7,15.6,30.09,West,266,22.0,28.0,49,0.00,,,0.00,meteohub,2013-02-21 17:02:00,
2013-02-21 12:07:00,33.1,16.0,30.09,WNW,300,17.0,23.0,49,0.00,,,0.00,meteohub,2013-02-21 17:07:00,
2013-02-21 12:12:00,33.1,15.4,30.09,West,274,14.0,23.0,48,0.00,,,0.00,meteohub,2013-02-21 17:12:00,
2013-02-21 12:17:00,33.1,15.4,30.08,NW,312,14.0,22.0,48,0.00,,,0.00,meteohub,2013-02-21 17:17:00,
2013-02-21 12:22:00,33.1,15.1,30.07,NW,307,12.0,27.0,47,0.00,,,0.00,meteohub,2013-02-21 17:22:00,
2013-02-21 12:27:00,33.1,15.4,30.07,NNW,334,11.0,27.0,48,0.00,,,0.00,meteohub,2013-02-21 17:27:00,
2013-02-21 12:32:00,33.4,15.8,30.07,WNW,295,12.0,27.0,48,0.00,,,0.00,meteohub,2013-02-21 17:32:00,
2013-02-21 12:37:00,33.6,15.6,30.07,WNW,300,8.0,26.0,47,0.00,,,0.00,meteohub,2013-02-21 17:37:00,
2013-02-21 12:42:00,33.6,15.1,30.07,West,260,13.0,25.0,46,0.00,,,0.00,meteohub,2013-02-21 17:42:00,
2013-02-21 12:47:00,34.0,15.4,30.07,WNW,296,9.0,25.0,46,0.00,,,0.00,meteohub,2013-02-21 17:47:00,
2013-02-21 12:52:00,34.2,16.0,30.07,NNW,333,6.0,25.0,47,0.00,,,0.00,meteohub,2013-02-21 17:52:00,
2013-02-21 12:57:00,34.0,15.4,30.07,North,355,9.0,24.0,46,0.00,,,0.00,meteohub,2013-02-21 17:57:00,
2013-02-21 13:02:00,34.3,15.6,30.07,NNW,328,6.0,24.0,46,0.00,,,0.00,meteohub,2013-02-21 18:02:00,
2013-02-21 13:07:00,34.2,15.6,30.07,NW,304,16.0,24.0,46,0.00,,,0.00,meteohub,2013-02-21 18:07:00,
2013-02-21 13:12:00,34.2,15.6,30.06,NW,304,19.0,24.0,46,0.00,,,0.00,meteohub,2013-02-21 18:12:00,
2013-02-21 13:17:00,34.5,16.3,30.07,NW,323,11.0,24.0,47,0.00,,,0.00,meteohub,2013-02-21 18:17:00,
2013-02-21 13:22:00,34.5,15.8,30.07,NW,304,6.0,24.0,46,0.00,,,0.00,meteohub,2013-02-21 18:22:00,
2013-02-21 13:27:00,35.1,16.3,30.07,NW,321,6.0,24.0,46,0.00,,,0.00,meteohub,2013-02-21 18:27:00,
2013-02-21 13:32:00,35.4,16.2,30.08,NW,312,10.0,24.0,45,0.00,,,0.00,meteohub,2013-02-21 18:32:00,
2013-02-21 13:37:00,35.4,16.2,30.08,NNW,329,9.0,20.0,45,0.00,,,0.00,meteohub,2013-02-21 18:37:00,
2013-02-21 13:42:00,35.4,16.2,30.08,North,4,5.0,20.0,45,0.00,,,0.00,meteohub,2013-02-21 18:42:00,
2013-02-21 13:47:00,35.4,16.2,30.08,NW,309,7.0,20.0,45,0.00,,,0.00,meteohub,2013-02-21 18:47:00,
2013-02-21 13:52:00,35.4,16.2,30.07,NW,304,12.0,27.0,45,0.00,,,0.00,meteohub,2013-02-21 18:52:00,
2013-02-21 13:57:00,35.2,16.5,30.08,WNW,285,10.0,27.0,46,0.00,,,0.00,meteohub,2013-02-21 18:57:00,
2013-02-21 14:02:00,35.2,16.0,30.08,NE,46,8.0,27.0,45,0.00,,,0.00,meteohub,2013-02-21 19:02:00,
2013-02-21 14:07:00,35.2,17.1,30.08,SE,128,5.0,26.0,47,0.00,,,0.00,meteohub,2013-02-21 19:07:00,
2013-02-21 14:12:00,35.2,16.5,30.08,NE,38,4.0,20.0,46,0.00,,,0.00,meteohub,2013-02-21 19:12:00,
2013-02-21 14:17:00,35.2,16.5,30.09,NNW,333,11.0,20.0,46,0.00,,,0.00,meteohub,2013-02-21 19:17:00,
2013-02-21 14:22:00,35.2,17.1,30.09,NNE,23,10.0,18.0,47,0.00,,,0.00,meteohub,2013-02-21 19:22:00,
2013-02-21 14:27:00,35.2,17.1,30.09,WNW,300,11.0,18.0,47,0.00,,,0.00,meteohub,2013-02-21 19:27:00,
2013-02-21 14:32:00,35.1,16.9,30.09,NW,304,12.0,22.0,47,0.00,,,0.00,meteohub,2013-02-21 19:32:00,
2013-02-21 14:37:00,35.2,17.1,30.09,NW,309,10.0,24.0,47,0.00,,,0.00,meteohub,2013-02-21 19:37:00,
2013-02-21 14:42:00,35.2,17.1,30.09,WNW,298,7.0,24.0,47,0.00,,,0.00,meteohub,2013-02-21 19:42:00,
2013-02-21 14:47:00,35.1,16.9,30.09,NW,316,9.0,26.0,47,0.00,,,0.00,meteohub,2013-02-21 19:47:00,
2013-02-21 14:52:00,34.9,17.2,30.09,NW,313,8.0,27.0,48,0.00,,,0.00,meteohub,2013-02-21 19:52:00,
2013-02-21 14:57:00,35.2,17.6,30.09,WNW,300,18.0,27.0,48,0.00,,,0.00,meteohub,2013-02-21 19:57:00,
2013-02-21 15:02:00,35.2,17.1,30.09,WNW,302,12.0,27.0,47,0.00,,,0.00,meteohub,2013-02-21 20:02:00,
2013-02-21 15:07:00,35.2,17.6,30.09,NNW,328,6.0,24.0,48,0.00,,,0.00,meteohub,2013-02-21 20:07:00,
2013-02-21 15:12:00,35.2,17.6,30.09,WNW,296,13.0,26.0,48,0.00,,,0.00,meteohub,2013-02-21 20:12:00,
2013-02-21 15:17:00,35.1,17.4,30.09,WNW,297,13.0,26.0,48,0.00,,,0.00,meteohub,2013-02-21 20:17:00,
2013-02-21 15:22:00,35.2,18.0,30.09,WNW,288,10.0,26.0,49,0.00,,,0.00,meteohub,2013-02-21 20:22:00,
2013-02-21 15:27:00,35.4,18.1,30.09,NW,319,4.0,26.0,49,0.00,,,0.00,meteohub,2013-02-21 20:27:00,
2013-02-21 15:32:00,35.8,17.6,30.09,West,281,15.0,26.0,47,0.00,,,0.00,meteohub,2013-02-21 20:32:00,
2013-02-21 15:37:00,35.8,17.6,30.09,WNW,295,3.0,25.0,47,0.00,,,0.00,meteohub,2013-02-21 20:37:00,
2013-02-21 15:42:00,36.0,18.1,30.09,NNW,328,5.0,23.0,48,0.00,,,0.00,meteohub,2013-02-21 20:42:00,
2013-02-21 15:47:00,36.0,17.6,30.09,NNW,345,9.0,18.0,47,0.00,,,0.00,meteohub,2013-02-21 20:47:00,
2013-02-21 15:52:00,35.8,17.6,30.09,NNW,338,6.0,18.0,47,0.00,,,0.00,meteohub,2013-02-21 20:52:00,
2013-02-21 15:57:00,36.0,17.6,30.10,NNW,338,5.0,19.0,47,0.00,,,0.00,meteohub,2013-02-21 20:57:00,
2013-02-21 16:02:00,35.8,17.6,30.11,NNW,345,9.0,20.0,47,0.00,,,0.00,meteohub,2013-02-21 21:02:00,
2013-02-21 16:07:00,35.6,17.4,30.11,NNE,25,5.0,20.0,47,0.00,,,0.00,meteohub,2013-02-21 21:07:00,
2013-02-21 16:12:00,35.6,17.8,30.12,North,354,4.0,20.0,48,0.00,,,0.00,meteohub,2013-02-21 21:12:00,
2013-02-21 16:17:00,35.8,18.0,30.12,WNW,300,8.0,20.0,48,0.00,,,0.00,meteohub,2013-02-21 21:17:00,
2013-02-21 16:22:00,35.8,18.0,30.12,WNW,300,10.0,17.0,48,0.00,,,0.00,meteohub,2013-02-21 21:22:00,
2013-02-21 16:27:00,35.6,17.8,30.12,NNE,27,4.0,19.0,48,0.00,,,0.00,meteohub,2013-02-21 21:27:00,
2013-02-21 16:32:00,35.4,17.6,30.12,NW,304,9.0,19.0,48,0.00,,,0.00,meteohub,2013-02-21 21:32:00,
2013-02-21 16:37:00,35.4,17.6,30.13,NW,326,6.0,19.0,48,0.00,,,0.00,meteohub,2013-02-21 21:37:00,
2013-02-21 16:42:00,35.2,18.0,30.13,NW,308,9.0,18.0,49,0.00,,,0.00,meteohub,2013-02-21 21:42:00,
2013-02-21 16:47:00,35.2,18.0,30.13,NW,326,7.0,18.0,49,0.00,,,0.00,meteohub,2013-02-21 21:47:00,
2013-02-21 16:52:00,35.2,17.6,30.14,NNE,13,4.0,18.0,48,0.00,,,0.00,meteohub,2013-02-21 21:52:00,
2013-02-21 16:57:00,35.1,17.8,30.15,NW,323,3.0,18.0,49,0.00,,,0.00,meteohub,2013-02-21 21:57:00,
2013-02-21 17:02:00,34.9,17.6,30.15,NNE,27,6.0,17.0,49,0.00,,,0.00,meteohub,2013-02-21 22:02:00,
2013-02-21 17:07:00,34.9,17.6,30.15,North,349,4.0,17.0,49,0.00,,,0.00,meteohub,2013-02-21 22:07:00,
2013-02-21 17:12:00,34.5,17.2,30.16,NE,35,4.0,17.0,49,0.00,,,0.00,meteohub,2013-02-21 22:12:00,
2013-02-21 17:17:00,34.2,17.4,30.16,NE,41,6.0,14.0,50,0.00,,,0.00,meteohub,2013-02-21 22:17:00,
2013-02-21 17:22:00,33.6,16.9,30.16,North,9,7.0,14.0,50,0.00,,,0.00,meteohub,2013-02-21 22:22:00,
2013-02-21 17:27:00,33.3,17.1,30.17,NNE,13,5.0,13.0,51,0.00,,,0.00,meteohub,2013-02-21 22:27:00,
2013-02-21 17:32:00,33.1,16.9,30.17,North,5,5.0,13.0,51,0.00,,,0.00,meteohub,2013-02-21 22:32:00,
2013-02-21 17:37:00,32.7,17.1,30.17,NNW,332,7.0,13.0,52,0.00,,,0.00,meteohub,2013-02-21 22:37:00,
2013-02-21 17:42:00,32.4,16.7,30.17,NNW,339,7.0,12.0,52,0.00,,,0.00,meteohub,2013-02-21 22:42:00,
2013-02-21 17:47:00,32.4,17.1,30.17,NNE,22,4.0,15.0,53,0.00,,,0.00,meteohub,2013-02-21 22:47:00,
2013-02-21 17:52:00,32.2,17.1,30.18,NW,312,12.0,15.0,53,0.00,,,0.00,meteohub,2013-02-21 22:52:00,
2013-02-21 17:57:00,32.0,17.2,30.17,NW,318,3.0,16.0,54,0.00,,,0.00,meteohub,2013-02-21 22:57:00,
2013-02-21 18:02:00,31.8,16.7,30.17,NW,323,9.0,16.0,53,0.00,,,0.00,meteohub,2013-02-21 23:02:00,
2013-02-21 18:07:00,31.6,16.9,30.17,NW,309,6.0,16.0,54,0.00,,,0.00,meteohub,2013-02-21 23:07:00,
2013-02-21 18:12:00,31.5,16.7,30.17,WNW,284,2.0,18.0,54,0.00,,,0.00,meteohub,2013-02-21 23:12:00,
2013-02-21 18:17:00,31.3,16.5,30.16,NW,321,8.0,18.0,54,0.00,,,0.00,meteohub,2013-02-21 23:17:00,
2013-02-21 18:22:00,30.9,16.2,30.16,North,349,5.0,18.0,54,0.00,,,0.00,meteohub,2013-02-21 23:22:00,
2013-02-21 18:27:00,30.7,16.5,30.17,NNE,18,10.0,16.0,55,0.00,,,0.00,meteohub,2013-02-21 23:27:00,
2013-02-21 18:32:00,30.6,16.3,30.18,WNW,293,4.0,16.0,55,0.00,,,0.00,meteohub,2013-02-21 23:32:00,
2013-02-21 18:37:00,30.6,16.3,30.18,NW,323,4.0,16.0,55,0.00,,,0.00,meteohub,2013-02-21 23:37:00,
2013-02-21 18:42:00,30.4,16.2,30.20,NE,41,5.0,16.0,55,0.00,,,0.00,meteohub,2013-02-21 23:42:00,
2013-02-21 18:47:00,30.2,16.0,30.20,NNE,12,4.0,16.0,55,0.00,,,0.00,meteohub,2013-02-21 23:47:00,
2013-02-21 18:52:00,30.0,16.2,30.21,NW,311,2.0,15.0,56,0.00,,,0.00,meteohub,2013-02-21 23:52:00,
2013-02-21 18:57:00,30.0,16.2,30.23,North,5,6.0,15.0,56,0.00,,,0.00,meteohub,2013-02-21 23:57:00,
2013-02-21 19:02:00,30.0,16.2,30.23,NNW,336,4.0,13.0,56,0.00,,,0.00,meteohub,2013-02-22 00:02:00,
2013-02-21 19:07:00,30.0,16.2,30.23,North,1,2.0,13.0,56,0.00,,,0.00,meteohub,2013-02-22 00:07:00,
2013-02-21 19:12:00,29.8,16.5,30.23,NW,304,5.0,10.0,57,0.00,,,0.00,meteohub,2013-02-22 00:12:00,
2013-02-21 19:17:00,29.7,16.3,30.24,WNW,298,6.0,10.0,57,0.00,,,0.00,meteohub,2013-02-22 00:17:00,
2013-02-21 19:22:00,29.7,16.3,30.26,WNW,291,11.0,15.0,57,0.00,,,0.00,meteohub,2013-02-22 00:22:00,
2013-02-21 19:27:00,29.5,16.2,30.27,NW,316,4.0,15.0,57,0.00,,,0.00,meteohub,2013-02-22 00:27:00,
2013-02-21 19:32:00,29.5,16.2,30.27,WNW,290,9.0,15.0,57,0.00,,,0.00,meteohub,2013-02-22 00:32:00,
2013-02-21 19:37:00,29.1,15.8,30.26,NW,316,8.0,15.0,57,0.00,,,0.00,meteohub,2013-02-22 00:37:00,
2013-02-21 19:42:00,28.8,15.4,30.27,NW,312,8.0,14.0,57,0.00,,,0.00,meteohub,2013-02-22 00:42:00,
2013-02-21 19:47:00,28.6,15.6,30.27,NNW,328,5.0,19.0,58,0.00,,,0.00,meteohub,2013-02-22 00:47:00,
2013-02-21 19:52:00,28.6,15.6,30.27,North,353,3.0,19.0,58,0.00,,,0.00,meteohub,2013-02-22 00:52:00,
2013-02-21 19:57:00,28.2,15.8,30.28,NW,314,5.0,19.0,59,0.00,,,0.00,meteohub,2013-02-22 00:57:00,
2013-02-21 20:02:00,28.2,15.8,30.29,NNW,332,5.0,15.0,59,0.00,,,0.00,meteohub,2013-02-22 01:02:00,
2013-02-21 20:07:00,28.0,15.6,30.30,NW,317,2.0,16.0,59,0.00,,,0.00,meteohub,2013-02-22 01:07:00,
2013-02-21 20:12:00,28.0,15.6,30.30,NW,326,5.0,16.0,59,0.00,,,0.00,meteohub,2013-02-22 01:12:00,
2013-02-21 20:17:00,27.9,15.4,30.30,NNW,332,12.0,16.0,59,0.00,,,0.00,meteohub,2013-02-22 01:17:00,
2013-02-21 20:22:00,27.9,15.8,30.31,NW,317,6.0,15.0,60,0.00,,,0.00,meteohub,2013-02-22 01:22:00,
2013-02-21 20:27:00,27.9,15.8,30.31,NNW,342,5.0,16.0,60,0.00,,,0.00,meteohub,2013-02-22 01:27:00,
2013-02-21 20:32:00,27.7,15.6,30.31,WNW,295,8.0,16.0,60,0.00,,,0.00,meteohub,2013-02-22 01:32:00,
2013-02-21 20:37:00,27.7,15.6,30.32,NW,304,6.0,16.0,60,0.00,,,0.00,meteohub,2013-02-22 01:37:00,
2013-02-21 20:42:00,27.7,16.0,30.32,WNW,296,8.0,11.0,61,0.00,,,0.00,meteohub,2013-02-22 01:42:00,
2013-02-21 20:47:00,27.5,15.8,30.32,NNW,330,5.0,10.0,61,0.00,,,0.00,meteohub,2013-02-22 01:47:00,
2013-02-21 20:52:00,27.3,15.6,30.33,NW,319,9.0,11.0,61,0.00,,,0.00,meteohub,2013-02-22 01:52:00,
2013-02-21 20:57:00,27.1,15.4,30.32,WNW,284,15.0,16.0,61,0.00,,,0.00,meteohub,2013-02-22 01:57:00,
2013-02-21 21:02:00,27.0,15.6,30.32,NNW,343,7.0,18.0,62,0.00,,,0.00,meteohub,2013-02-22 02:02:00,
2013-02-21 21:07:00,27.0,15.6,30.33,NNW,345,3.0,18.0,62,0.00,,,0.00,meteohub,2013-02-22 02:07:00,
2013-02-21 21:12:00,26.8,15.4,30.33,North,1,6.0,18.0,62,0.00,,,0.00,meteohub,2013-02-22 02:12:00,
2013-02-21 21:17:00,26.8,15.4,30.32,NNE,16,10.0,10.0,62,0.00,,,0.00,meteohub,2013-02-22 02:17:00,
2013-02-21 21:22:00,26.6,15.3,30.32,NW,326,4.0,10.0,62,0.00,,,0.00,meteohub,2013-02-22 02:22:00,
2013-02-21 21:27:00,26.4,15.6,30.32,NE,38,6.0,10.0,63,0.00,,,0.00,meteohub,2013-02-22 02:27:00,
2013-02-21 21:32:00,26.4,15.6,30.32,NNE,14,4.0,10.0,63,0.00,,,0.00,meteohub,2013-02-22 02:32:00,
2013-02-21 21:37:00,26.2,15.4,30.32,NW,312,3.0,9.0,63,0.00,,,0.00,meteohub,2013-02-22 02:37:00,
2013-02-21 21:42:00,26.2,15.4,30.32,North,357,4.0,9.0,63,0.00,,,0.00,meteohub,2013-02-22 02:42:00,
2013-02-21 21:47:00,26.2,15.4,30.32,NNE,29,3.0,9.0,63,0.00,,,0.00,meteohub,2013-02-22 02:47:00,
2013-02-21 21:52:00,26.1,15.3,30.33,NNE,25,1.0,11.0,63,0.00,,,0.00,meteohub,2013-02-22 02:52:00,
2013-02-21 21:57:00,26.1,15.6,30.32,NNW,345,3.0,11.0,64,0.00,,,0.00,meteohub,2013-02-22 02:57:00,
2013-02-21 22:02:00,25.9,15.4,30.32,NE,38,4.0,11.0,64,0.00,,,0.00,meteohub,2013-02-22 03:02:00,
2013-02-21 22:07:00,25.9,15.4,30.33,NNW,335,3.0,8.0,64,0.00,,,0.00,meteohub,2013-02-22 03:07:00,
2013-02-21 22:12:00,25.9,15.4,30.33,NNE,19,3.0,10.0,64,0.00,,,0.00,meteohub,2013-02-22 03:12:00,
2013-02-21 22:17:00,25.9,15.4,30.33,NNW,329,1.0,10.0,64,0.00,,,0.00,meteohub,2013-02-22 03:17:00,
2013-02-21 22:22:00,25.7,15.3,30.33,ENE,72,2.0,10.0,64,0.00,,,0.00,meteohub,2013-02-22 03:22:00,
2013-02-21 22:27:00,25.5,15.4,30.32,WNW,285,3.0,8.0,65,0.00,,,0.00,meteohub,2013-02-22 03:27:00,
2013-02-21 22:32:00,25.5,15.4,30.33,NNE,12,1.0,5.0,65,0.00,,,0.00,meteohub,2013-02-22 03:32:00,
2013-02-21 22:37:00,25.3,15.3,30.33,NNE,33,2.0,5.0,65,0.00,,,0.00,meteohub,2013-02-22 03:37:00,
2013-02-21 22:42:00,25.3,15.3,30.33,NNW,339,3.0,5.0,65,0.00,,,0.00,meteohub,2013-02-22 03:42:00,
2013-02-21 22:47:00,25.3,15.6,30.33,NNE,33,2.0,5.0,66,0.00,,,0.00,meteohub,2013-02-22 03:47:00,
2013-02-21 22:52:00,25.2,15.4,30.33,NNE,29,2.0,7.0,66,0.00,,,0.00,meteohub,2013-02-22 03:52:00,
2013-02-21 22:57:00,25.2,15.4,30.33,North,9,3.0,7.0,66,0.00,,,0.00,meteohub,2013-02-22 03:57:00,
2013-02-21 23:02:00,25.2,15.4,30.34,North,354,2.0,7.0,66,0.00,,,0.00,meteohub,2013-02-22 04:02:00,
2013-02-21 23:07:00,25.0,15.6,30.34,SW,225,6.0,7.0,67,0.00,,,0.00,meteohub,2013-02-22 04:07:00,
2013-02-21 23:12:00,25.0,15.3,30.33,NNE,19,2.0,7.0,66,0.00,,,0.00,meteohub,2013-02-22 04:12:00,
2013-02-21 23:17:00,25.0,15.6,30.34,NE,41,1.0,7.0,67,0.00,,,0.00,meteohub,2013-02-22 04:17:00,
2013-02-21 23:22:00,25.0,15.6,30.34,NE,54,2.0,7.0,67,0.00,,,0.00,meteohub,2013-02-22 04:22:00,
2013-02-21 23:27:00,25.0,15.6,30.34,NNE,16,4.0,7.0,67,0.00,,,0.00,meteohub,2013-02-22 04:27:00,
2013-02-21 23:32:00,25.0,15.6,30.33,NNE,20,1.0,6.0,67,0.00,,,0.00,meteohub,2013-02-22 04:32:00,
2013-02-21 23:37:00,25.0,16.0,30.33,North,357,1.0,6.0,68,0.00,,,0.00,meteohub,2013-02-22 04:37:00,
2013-02-21 23:42:00,24.8,15.8,30.34,NE,41,1.0,4.0,68,0.00,,,0.00,meteohub,2013-02-22 04:42:00,
2013-02-21 23:47:00,24.8,15.8,30.34,NNE,25,0.0,5.0,68,0.00,,,0.00,meteohub,2013-02-22 04:47:00,
2013-02-21 23:52:00,24.8,15.8,30.34,NNE,30,4.0,5.0,68,0.00,,,0.00,meteohub,2013-02-22 04:52:00,
2013-02-21 23:57:00,25.0,16.0,30.34,NNW,334,2.0,7.0,68,0.00,,,0.00,meteohub,2013-02-22 04:57:00,